Regional Weather Roundup
Issued by NWS New Orleans/Baton Rouge, LA

Home | Current Version | Previous Version | Text Only | Print | Product List | Glossary Off
Versions: 1 2 3 4 5 6 7 8 9 10 11 12 13 14 15 16 17 18 19 20 21 22 23 24 25 26 27 28 29 30 31 32 33 34 35 36 37 38 39 40 41 42 43 44 45 46 47 48 49 50

355
ASUS44 KLIX 310401
RWRLIX
NEW ORLEANS REGIONAL WEATHER ROUNDUP
NATIONAL WEATHER SERVICE NEW ORLEANS LA
1000 PM CST FRI JAN 30 2015

NOTE: "FAIR" INDICATES FEW OR NO CLOUDS BELOW 12,000 FEET WITH NO
      SIGNIFICANT WEATHER AND/OR OBSTRUCTIONS TO VISIBILITY.
      SKY/WX - SKY CONDITION AND SIGNIFICANT WEATHER.
      TMP - AIR TEMPERATURE.     DP    - DEWPOINT TEMPERATURE.
      RH  - RELATIVE HUMIDITY.   PRES  - PRESSURE.
      HI  - HEAT INDEX.          WCI   - WIND CHILL INDEX.

*  THESE STATIONS ARE NOT NWS OR FAA STATIONS AND ARE NOT UNDER
   NWS QUALITY CONTROL.

LAZ038-040-048-061>063-065>067-069-310500-
SOUTHEAST LOUISIANA

CITY           SKY/WX    TMP DP  RH WIND       PRES   REMARKS
N.O. AUDUBON     N/A     50  43  78 MISG        N/A
N.O. INTL ARPT MOCLDY    50  39  66 NE8       30.35S
N.O. LAKEFRONT PTCLDY    56  40  55 NE15      30.36R
N.O. DOWNTOWN* NOT AVBL
SLIDELL        PTCLDY    40  36  86 CALM      30.35S
BATON ROUGE    CLEAR     41  34  76 NE3       30.36S
BOOTHVILLE     PTCLDY    52  44  74 N6        30.34S
BELLE CHASSE   MOCLDY    41  36  82 CALM      30.35R
BOGALUSA*        N/A     39  35  85 CALM      30.39R
GALLIANO*      NOT AVBL
NEW ROADS*     NOT AVBL
GONZALES*      NOT AVBL
HAMMOND*       NOT AVBL
HOUMA*         PTCLDY    47  37  67 N6        30.34S
PORT FOURCHON* CLEAR     54  43  66 NE8       30.36F

$$

MSZ070-080>082-310500-
SOUTHERN MISSISSIPPI

CITY           SKY/WX    TMP DP  RH WIND       PRES   REMARKS
MCCOMB         MOCLDY    47  30  51 N5        30.36F
GULFPORT       PTCLDY    48  32  53 N7        30.36R
BILOXI         PTCLDY    46  35  64 N5        30.35F
PASCAGOULA     PTCLDY    42  32  67 N6        30.36S

$$

COASTAL OBSERVATIONS
LAKE AND NEARSHORE STATIONS

STATION/POSITION TIME  TEMP    WIND        PRES    WAVE
                       AIR SEA DIR/SP/G            HT/PER
                 (UTC) (F)     (DEG/KT/KT) (MB)    (FT/S)
PASCAGOULA       0300   51      20/  7/ 11 1027.3
WAVELAND YACHT   0300   52      40/  9/  9 1027.0
GRAND ISLE       0300   56 62   50/  8/ 12 1027.6
SOUTHWEST PASS   0300   49 46   30/  8/  9 1027.4
NEW CANAL        0300   54 55   40/ 10/ 12 1027.9
SHELL BEACH      0300   56 57   30/ 14/ 15 1027.4

OFFSHORE STATIONS

STATION/POSITION TIME  TEMP    WIND        PRES    WAVE
                       AIR SEA DIR/SP/G            HT/PER
                 (UTC) (F)     (DEG/KT/KT) (MB)    (FT/S)
64 S DAUPHIN ISL 0300   60 68   30/ 17/ 21 1026.8    3/ 4

$$




USA.gov is the U.S. government's official web portal to all federal, state and local government web resources and services.